ITF-2 (41932 NORAD) Tracking and Keplerian Element Data

This shows tracking and keplerian element data for the satellite.

Feedback or suggestion? Click here.




ElementValue
Catalog41932
NameITF-2
Epoch Orbit10483
Epoch Day320.13090346
Epoch Year2018
RAAN270.045
Inclination51.6255
Eccentricity0.000611
Argument of Perigee97.6236
Mean Anonmoly262.5466
Mean Motion15.94324016
Decay Rate0.00120908
L11 41932U 98067KU 18320.13090346 .00120908 16842-4 32240-3 0 9998
L22 41932 51.6255 270.0450 0006110 97.6236 262.5466 15.94324016104836

Live tracking and technical data element details for ITF-2 (NORAD 41932). ITF-2 can be tracked NOW for your location showing map with azimuth and elevation plus other details from your city location.

Track the satellite on the map from your city or location and see movement details for azimuth, elevation, latitude, longitude, range, height, and movement on the map or in text.







IsCatalogInMostPopularTable: catalog: 41932, numindb: 115
Update: records affected: 1



GetName: 41932 ITF-2

Hit Count: updated at: Fri, 16 Nov 2018 11:19:03 GMT